Check out our new BloomSky Weather System.

Active alerts


No alerts


Thunder radar  blitzortung!


Rain radar more information rain snow radar


Visit our other weather sites:

Template documentation
and downloads

And another site



Weather Underground History page Text

Daily Summary for October 16, 2017 Units:  English    Metric   Both
« Previous Day
Next Day »
Daily Weekly Monthly Yearly Custom
  High: Low: Average:
Temperature: 76.8 °F 57.4 °F 66.7 °F
Dew Point: 53.1 °F 47.7 °F 50.3 °F
Humidity: 74 % 37 % 57 %
Wind Speed: 13.0 mph 0.0 mph 3.4 mph
Wind Gust: 17.0 mph - -
Wind:- - WNW
Pressure: 30.30 in 30.15 in -
Precipitation: 0.00 in    
Historical Graphs
 
 
Tabular Data for October 16, 2017
Time Temperature Dew Point Pressure Wind Wind Speed Wind Gust Humidity Rainfall Rate (Hourly)
00:03 71.1 °F 53.1 °F 30.19 in SE 5.0 mph 13.0 mph 53 % 0.00 in
00:08 71.1 °F 53.1 °F 30.19 in NW 1.0 mph 14.0 mph 53 % 0.00 in
00:13 71.1 °F 53.1 °F 30.19 in NNW 9.0 mph 14.0 mph 53 % 0.00 in
00:18 70.9 °F 52.9 °F 30.18 in NW 7.0 mph 14.0 mph 53 % 0.00 in
00:23 70.9 °F 52.9 °F 30.19 in WNW 2.0 mph 14.0 mph 53 % 0.00 in
00:28 70.7 °F 52.7 °F 30.19 in NNW 2.0 mph 14.0 mph 53 % 0.00 in
00:33 70.5 °F 52.5 °F 30.19 in NW 2.0 mph 13.0 mph 53 % 0.00 in
00:38 70.5 °F 52.5 °F 30.19 in WNW 6.0 mph 13.0 mph 53 % 0.00 in
00:43 70.3 °F 52.3 °F 30.19 in ESE 3.0 mph 10.0 mph 53 % 0.00 in
00:48 70.3 °F 52.3 °F 30.19 in WNW 4.0 mph 10.0 mph 53 % 0.00 in
00:53 70.2 °F 52.2 °F 30.19 in NW 2.0 mph 12.0 mph 53 % 0.00 in
00:58 70.2 °F 52.2 °F 30.19 in West 2.0 mph 12.0 mph 53 % 0.00 in
01:03 70.0 °F 52.0 °F 30.19 in NNE 8.0 mph 12.0 mph 53 % 0.00 in
01:08 70.0 °F 52.0 °F 30.19 in NNW 4.0 mph 11.0 mph 53 % 0.00 in
01:13 69.8 °F 51.4 °F 30.19 in NNW 7.0 mph 13.0 mph 52 % 0.00 in
01:18 69.6 °F 51.3 °F 30.19 in WNW 3.0 mph 13.0 mph 52 % 0.00 in
01:23 69.6 °F 51.3 °F 30.18 in North 13.0 mph 13.0 mph 52 % 0.00 in
01:28 69.6 °F 51.3 °F 30.18 in NW 5.0 mph 13.0 mph 52 % 0.00 in
01:33 69.6 °F 51.3 °F 30.18 in North 4.0 mph 13.0 mph 52 % 0.00 in
01:38 69.4 °F 50.5 °F 30.18 in NW 6.0 mph 13.0 mph 51 % 0.00 in
01:39 69.4 °F 51.1 °F 30.18 in North 8.0 mph 13.0 mph 52 % 0.00 in
01:44 69.3 °F 50.9 °F 30.18 in West 3.0 mph 14.0 mph 52 % 0.00 in
01:49 69.3 °F 50.9 °F 30.18 in NNW 4.0 mph 14.0 mph 52 % 0.00 in
01:54 68.9 °F 50.5 °F 30.18 in NW 3.0 mph 14.0 mph 52 % 0.00 in
01:59 68.5 °F 50.7 °F 30.18 in East 2.0 mph 15.0 mph 53 % 0.00 in
02:04 68.4 °F 50.5 °F 30.18 in NW 2.0 mph 15.0 mph 53 % 0.00 in
02:09 68.2 °F 50.4 °F 30.19 in WNW 9.0 mph 15.0 mph 53 % 0.00 in
02:14 67.8 °F 50.5 °F 30.19 in North 6.0 mph 12.0 mph 54 % 0.00 in
02:19 67.6 °F 50.9 °F 30.19 in WNW 4.0 mph 12.0 mph 55 % 0.00 in
02:24 67.5 °F 50.7 °F 30.19 in NW 3.0 mph 13.0 mph 55 % 0.00 in
02:29 67.3 °F 50.5 °F 30.18 in WNW 3.0 mph 13.0 mph 55 % 0.00 in
02:34 66.9 °F 50.7 °F 30.18 in WNW 7.0 mph 13.0 mph 56 % 0.00 in
02:39 66.7 °F 50.5 °F 30.19 in NW 6.0 mph 12.0 mph 56 % 0.00 in
02:44 66.6 °F 50.4 °F 30.19 in NW 3.0 mph 12.0 mph 56 % 0.00 in
02:49 66.6 °F 50.9 °F 30.18 in West 4.0 mph 12.0 mph 57 % 0.00 in
02:54 66.4 °F 50.7 °F 30.19 in NW 7.0 mph 12.0 mph 57 % 0.00 in
02:59 66.0 °F 50.9 °F 30.19 in NW 1.0 mph 12.0 mph 58 % 0.00 in
03:04 65.8 °F 50.7 °F 30.19 in West 4.0 mph 12.0 mph 58 % 0.00 in
03:05 65.8 °F 50.7 °F 30.19 in NW 5.0 mph 8.0 mph 58 % 0.00 in
03:10 65.7 °F 50.5 °F 30.19 in ENE 4.0 mph 9.0 mph 58 % 0.00 in
03:15 65.5 °F 50.4 °F 30.19 in NW 2.0 mph 9.0 mph 58 % 0.00 in
03:20 65.3 °F 50.5 °F 30.19 in NNW 6.0 mph 9.0 mph 59 % 0.00 in
03:25 65.1 °F 50.4 °F 30.19 in NNW 2.0 mph 9.0 mph 59 % 0.00 in
03:30 64.9 °F 50.2 °F 30.18 in West 2.0 mph 9.0 mph 59 % 0.00 in
03:35 64.8 °F 50.2 °F 30.19 in NNW 2.0 mph 9.0 mph 59 % 0.00 in
03:40 64.8 °F 50.5 °F 30.19 in NW 5.0 mph 9.0 mph 60 % 0.00 in
03:45 64.6 °F 50.4 °F 30.19 in West 4.0 mph 10.0 mph 60 % 0.00 in
03:50 64.4 °F 50.2 °F 30.18 in WNW 2.0 mph 10.0 mph 60 % 0.00 in
03:55 64.2 °F 50.5 °F 30.19 in NW 5.0 mph 10.0 mph 61 % 0.00 in
04:00 64.0 °F 50.4 °F 30.19 in NW 2.0 mph 12.0 mph 61 % 0.00 in
04:05 63.9 °F 50.2 °F 30.19 in NNW 3.0 mph 12.0 mph 61 % 0.00 in
04:10 63.7 °F 50.4 °F 30.19 in NW 5.0 mph 12.0 mph 62 % 0.00 in
04:15 63.3 °F 50.0 °F 30.19 in NW 3.0 mph 8.0 mph 62 % 0.00 in
04:20 63.1 °F 49.8 °F 30.19 in NW 3.0 mph 8.0 mph 62 % 0.00 in
04:25 63.0 °F 50.2 °F 30.19 in NNW 4.0 mph 8.0 mph 63 % 0.00 in
04:30 62.8 °F 50.0 °F 30.19 in NW 3.0 mph 10.0 mph 63 % 0.00 in
04:35 62.4 °F 50.0 °F 30.19 in North 4.0 mph 10.0 mph 64 % 0.00 in
04:40 62.4 °F 50.0 °F 30.19 in NW 2.0 mph 10.0 mph 64 % 0.00 in
04:45 62.2 °F 50.0 °F 30.19 in NW 2.0 mph 8.0 mph 64 % 0.00 in
04:50 62.1 °F 50.2 °F 30.19 in NNW 4.0 mph 9.0 mph 65 % 0.00 in
04:55 61.9 °F 50.0 °F 30.19 in NW 2.0 mph 9.0 mph 65 % 0.00 in
05:00 61.7 °F 49.8 °F 30.19 in WNW 2.0 mph 9.0 mph 65 % 0.00 in
05:05 61.5 °F 50.0 °F 30.20 in WSW 4.0 mph 9.0 mph 66 % 0.00 in
05:10 61.3 °F 49.8 °F 30.20 in NW 4.0 mph 9.0 mph 66 % 0.00 in
05:13 61.3 °F 49.8 °F 30.20 in NW 4.0 mph 9.0 mph 66 % 0.00 in
05:18 61.2 °F 50.2 °F 30.20 in NW 5.0 mph 9.0 mph 67 % 0.00 in
05:23 61.0 °F 50.0 °F 30.19 in NW 3.0 mph 9.0 mph 67 % 0.00 in
05:28 60.8 °F 49.8 °F 30.19 in NW 2.0 mph 9.0 mph 67 % 0.00 in
05:33 60.6 °F 50.0 °F 30.20 in NNW 5.0 mph 9.0 mph 68 % 0.00 in
05:38 60.6 °F 49.6 °F 30.20 in NW 7.0 mph 9.0 mph 67 % 0.00 in
05:43 60.4 °F 49.8 °F 30.20 in NNW 10.0 mph 10.0 mph 68 % 0.00 in
05:48 60.3 °F 49.6 °F 30.20 in NNW 6.0 mph 10.0 mph 68 % 0.00 in
05:53 60.1 °F 49.5 °F 30.21 in NW 3.0 mph 10.0 mph 68 % 0.00 in
05:58 59.7 °F 49.5 °F 30.21 in NNW 3.0 mph 10.0 mph 69 % 0.00 in
06:03 59.7 °F 49.5 °F 30.21 in NW 4.0 mph 8.0 mph 69 % 0.00 in
06:08 59.5 °F 49.3 °F 30.21 in WNW 5.0 mph 8.0 mph 69 % 0.00 in
06:13 59.4 °F 49.1 °F 30.22 in NNW 3.0 mph 8.0 mph 69 % 0.00 in
06:18 59.2 °F 49.1 °F 30.22 in NW 4.0 mph 8.0 mph 69 % 0.00 in
06:23 59.2 °F 49.5 °F 30.22 in NW 3.0 mph 10.0 mph 70 % 0.00 in
06:28 58.8 °F 49.1 °F 30.22 in NNW 7.0 mph 10.0 mph 70 % 0.00 in
06:33 58.8 °F 49.1 °F 30.22 in West 2.0 mph 13.0 mph 70 % 0.00 in
06:38 58.6 °F 49.3 °F 30.22 in WNW 4.0 mph 13.0 mph 71 % 0.00 in
06:43 58.5 °F 49.1 °F 30.23 in NW 4.0 mph 13.0 mph 71 % 0.00 in
06:48 58.5 °F 49.1 °F 30.23 in NNW 4.0 mph 8.0 mph 71 % 0.00 in
06:53 58.3 °F 49.3 °F 30.23 in NW 4.0 mph 8.0 mph 72 % 0.00 in
06:58 58.1 °F 49.1 °F 30.23 in NNW 4.0 mph 7.0 mph 72 % 0.00 in
07:03 57.9 °F 48.9 °F 30.24 in NNW 3.0 mph 8.0 mph 72 % 0.00 in
07:08 57.9 °F 48.9 °F 30.24 in North 5.0 mph 9.0 mph 72 % 0.00 in
07:13 57.7 °F 49.1 °F 30.24 in NNW 2.0 mph 9.0 mph 73 % 0.00 in
07:18 57.6 °F 48.9 °F 30.24 in NW 5.0 mph 9.0 mph 73 % 0.00 in
07:22 57.6 °F 48.9 °F 30.24 in Calm   7.0 mph 73 % 0.00 in
07:27 57.4 °F 48.7 °F 30.24 in WNW 2.0 mph 7.0 mph 73 % 0.00 in
07:32 57.4 °F 48.7 °F 30.25 in Calm   7.0 mph 73 % 0.00 in
07:37 57.4 °F 48.7 °F 30.25 in NNW 4.0 mph 8.0 mph 73 % 0.00 in
07:42 57.4 °F 49.1 °F 30.25 in Calm   8.0 mph 74 % 0.00 in
07:47 57.4 °F 49.1 °F 30.26 in NW 2.0 mph 8.0 mph 74 % 0.00 in
07:52 57.4 °F 49.1 °F 30.26 in NW 5.0 mph 6.0 mph 74 % 0.00 in
07:57 57.4 °F 49.1 °F 30.26 in NW 2.0 mph 6.0 mph 74 % 0.00 in
08:02 57.6 °F 48.9 °F 30.26 in North 6.0 mph 6.0 mph 73 % 0.00 in
08:07 57.7 °F 49.1 °F 30.27 in NW 4.0 mph 7.0 mph 73 % 0.00 in
08:12 57.9 °F 49.3 °F 30.27 in WNW 1.0 mph 7.0 mph 73 % 0.00 in
08:17 58.3 °F 49.6 °F 30.27 in NNW 5.0 mph 7.0 mph 73 % 0.00 in
08:22 58.6 °F 49.6 °F 30.27 in WNW 4.0 mph 8.0 mph 72 % 0.00 in
08:27 59.0 °F 49.6 °F 30.27 in WNW 5.0 mph 8.0 mph 71 % 0.00 in
08:32 59.4 °F 50.0 °F 30.27 in NE 7.0 mph 9.0 mph 71 % 0.00 in
08:37 59.7 °F 50.0 °F 30.27 in WNW 5.0 mph 9.0 mph 70 % 0.00 in
08:42 60.1 °F 49.8 °F 30.27 in WSW 3.0 mph 11.0 mph 69 % 0.00 in
08:47 60.4 °F 50.2 °F 30.27 in NNW 2.0 mph 11.0 mph 69 % 0.00 in
08:52 60.8 °F 50.2 °F 30.28 in NNE 5.0 mph 12.0 mph 68 % 0.00 in
08:57 61.0 °F 50.4 °F 30.28 in NW 2.0 mph 12.0 mph 68 % 0.00 in
09:03 61.3 °F 50.7 °F 30.28 in NNE 6.0 mph 12.0 mph 68 % 0.00 in
09:07 61.5 °F 50.5 °F 30.28 in North 2.0 mph 12.0 mph 67 % 0.00 in
09:13 61.9 °F 50.7 °F 30.29 in North 6.0 mph 12.0 mph 67 % 0.00 in
09:18 62.1 °F 50.9 °F 30.29 in ENE 10.0 mph 12.0 mph 67 % 0.00 in
09:22 62.4 °F 51.3 °F 30.29 in NW 4.0 mph 11.0 mph 67 % 0.00 in
09:28 62.8 °F 50.9 °F 30.29 in WNW 3.0 mph 11.0 mph 65 % 0.00 in
09:33 63.0 °F 51.4 °F 30.30 in NW 3.0 mph 11.0 mph 66 % 0.00 in
09:38 63.3 °F 51.4 °F 30.30 in NW 3.0 mph 13.0 mph 65 % 0.00 in
09:43 63.7 °F 51.3 °F 30.30 in NW 10.0 mph 13.0 mph 64 % 0.00 in
09:48 63.9 °F 51.4 °F 30.30 in NNW 7.0 mph 13.0 mph 64 % 0.00 in
09:53 64.4 °F 51.1 °F 30.30 in North 9.0 mph 13.0 mph 62 % 0.00 in
09:54 64.4 °F 51.1 °F 30.30 in NNW 5.0 mph 13.0 mph 62 % 0.00 in
09:59 64.8 °F 51.1 °F 30.30 in NW 6.0 mph 13.0 mph 61 % 0.00 in
10:04 65.1 °F 50.9 °F 30.29 in NNW 5.0 mph 13.0 mph 60 % 0.00 in
10:09 65.1 °F 50.9 °F 30.29 in NNW 6.0 mph 11.0 mph 60 % 0.00 in
10:14 65.5 °F 51.3 °F 30.29 in North 3.0 mph 13.0 mph 60 % 0.00 in
10:19 66.0 °F 51.3 °F 30.29 in NW 9.0 mph 13.0 mph 59 % 0.00 in
10:24 66.2 °F 50.9 °F 30.29 in WNW 3.0 mph 13.0 mph 58 % 0.00 in
10:29 66.2 °F 50.9 °F 30.29 in NNW 6.0 mph 12.0 mph 58 % 0.00 in
10:34 66.7 °F 51.1 °F 30.29 in West 2.0 mph 12.0 mph 57 % 0.00 in
10:39 66.9 °F 50.2 °F 30.29 in NE 4.0 mph 14.0 mph 55 % 0.00 in
10:44 67.1 °F 50.9 °F 30.29 in WNW 3.0 mph 14.0 mph 56 % 0.00 in
10:49 67.8 °F 51.1 °F 30.28 in NNE 6.0 mph 14.0 mph 55 % 0.00 in
10:54 67.6 °F 50.9 °F 30.29 in WNW 4.0 mph 14.0 mph 55 % 0.00 in
10:59 67.6 °F 50.9 °F 30.28 in North 5.0 mph 14.0 mph 55 % 0.00 in
11:04 68.0 °F 50.2 °F 30.28 in ENE 6.0 mph 14.0 mph 53 % 0.00 in
11:09 68.4 °F 50.5 °F 30.28 in NW 13.0 mph 14.0 mph 53 % 0.00 in
11:14 68.4 °F 49.5 °F 30.28 in West 6.0 mph 13.0 mph 51 % 0.00 in
11:19 68.7 °F 50.9 °F 30.28 in WNW 4.0 mph 14.0 mph 53 % 0.00 in
11:24 69.3 °F 50.9 °F 30.28 in NNW 5.0 mph 14.0 mph 52 % 0.00 in
11:29 69.4 °F 50.5 °F 30.27 in North 4.0 mph 14.0 mph 51 % 0.00 in
11:34 69.4 °F 50.5 °F 30.27 in North 4.0 mph 14.0 mph 51 % 0.00 in
11:35 69.6 °F 51.3 °F 30.27 in NNW 6.0 mph 14.0 mph 52 % 0.00 in
11:40 69.6 °F 50.2 °F 30.28 in NNW 5.0 mph 13.0 mph 50 % 0.00 in
11:45 69.6 °F 50.7 °F 30.28 in WNW 3.0 mph 13.0 mph 51 % 0.00 in
11:50 70.2 °F 50.7 °F 30.28 in NW 4.0 mph 13.0 mph 50 % 0.00 in
11:55 70.3 °F 51.4 °F 30.28 in NW 5.0 mph 11.0 mph 51 % 0.00 in
12:00 70.9 °F 51.3 °F 30.27 in NNW 8.0 mph 11.0 mph 50 % 0.00 in
12:05 70.5 °F 50.9 °F 30.27 in NW 8.0 mph 11.0 mph 50 % 0.00 in
12:10 70.5 °F 50.4 °F 30.27 in WNW 2.0 mph 13.0 mph 49 % 0.00 in
12:15 70.3 °F 50.9 °F 30.27 in WNW 6.0 mph 16.0 mph 50 % 0.00 in
12:20 70.5 °F 50.9 °F 30.27 in NW 6.0 mph 16.0 mph 50 % 0.00 in
12:25 70.3 °F 50.4 °F 30.27 in WNW 3.0 mph 16.0 mph 49 % 0.00 in
12:30 71.1 °F 50.9 °F 30.26 in NW 2.0 mph 13.0 mph 49 % 0.00 in
12:35 71.2 °F 50.5 °F 30.26 in NW 7.0 mph 13.0 mph 48 % 0.00 in
12:40 71.6 °F 50.4 °F 30.25 in NW 6.0 mph 13.0 mph 47 % 0.00 in
12:50 71.6 °F 51.4 °F 30.25 in WNW 1.0 mph 16.0 mph 49 % 0.00 in
12:55 72.0 °F 51.3 °F 30.24 in NW 4.0 mph 16.0 mph 48 % 0.00 in
13:00 71.8 °F 50.5 °F 30.24 in NW 9.0 mph 14.0 mph 47 % 0.00 in
13:05 72.0 °F 50.7 °F 30.23 in NW 5.0 mph 14.0 mph 47 % 0.00 in
13:10 72.1 °F 50.7 °F 30.23 in NNW 3.0 mph 14.0 mph 47 % 0.00 in
13:15 72.3 °F 50.4 °F 30.23 in NNW 10.0 mph 13.0 mph 46 % 0.00 in
13:20 72.3 °F 51.4 °F 30.23 in West 8.0 mph 13.0 mph 48 % 0.00 in
13:25 72.7 °F 50.2 °F 30.22 in NNW 7.0 mph 13.0 mph 45 % 0.00 in
13:30 72.9 °F 52.0 °F 30.22 in North 7.0 mph 13.0 mph 48 % 0.00 in
13:35 72.9 °F 51.4 °F 30.22 in West 8.0 mph 14.0 mph 47 % 0.00 in
13:40 72.7 °F 50.2 °F 30.21 in NNW 8.0 mph 16.0 mph 45 % 0.00 in
13:45 73.0 °F 50.4 °F 30.21 in NNW 5.0 mph 16.0 mph 45 % 0.00 in
13:50 73.6 °F 50.9 °F 30.20 in NW 5.0 mph 16.0 mph 45 % 0.00 in
13:55 73.6 °F 50.4 °F 30.20 in NNW 5.0 mph 14.0 mph 44 % 0.00 in
14:00 73.6 °F 50.9 °F 30.20 in NW 5.0 mph 14.0 mph 45 % 0.00 in
14:05 73.4 °F 51.4 °F 30.20 in NW 7.0 mph 14.0 mph 46 % 0.00 in
14:10 73.8 °F 52.3 °F 30.20 in West 3.0 mph 12.0 mph 47 % 0.00 in
14:15 74.1 °F 51.4 °F 30.19 in NNE 8.0 mph 12.0 mph 45 % 0.00 in
14:20 74.1 °F 51.4 °F 30.19 in North 6.0 mph 12.0 mph 45 % 0.00 in
14:25 73.9 °F 51.3 °F 30.19 in NNW 8.0 mph 17.0 mph 45 % 0.00 in
14:30 73.8 °F 51.6 °F 30.18 in West 3.0 mph 17.0 mph 46 % 0.00 in
14:35 74.7 °F 51.3 °F 30.18 in NW 4.0 mph 17.0 mph 44 % 0.00 in
14:40 74.7 °F 52.0 °F 30.19 in NNW 6.0 mph 11.0 mph 45 % 0.00 in
14:45 74.8 °F 50.9 °F 30.18 in WNW 5.0 mph 11.0 mph 43 % 0.00 in
14:50 75.0 °F 51.1 °F 30.18 in NNE 5.0 mph 12.0 mph 43 % 0.00 in
14:55 75.0 °F 51.1 °F 30.18 in North 6.0 mph 13.0 mph 43 % 0.00 in
15:00 75.0 °F 50.4 °F 30.17 in NW 3.0 mph 13.0 mph 42 % 0.00 in
15:05 75.4 °F 52.0 °F 30.17 in North 5.0 mph 13.0 mph 44 % 0.00 in
15:11 75.6 °F 50.9 °F 30.17 in WNW 3.0 mph 12.0 mph 42 % 0.00 in
15:16 75.4 °F 50.7 °F 30.17 in NNW 3.0 mph 12.0 mph 42 % 0.00 in
15:21 75.4 °F 50.7 °F 30.17 in NW 5.0 mph 12.0 mph 42 % 0.00 in
15:26 75.4 °F 50.0 °F 30.16 in NNW 7.0 mph 12.0 mph 41 % 0.00 in
15:31 75.6 °F 50.2 °F 30.16 in NW 2.0 mph 12.0 mph 41 % 0.00 in
15:36 75.7 °F 51.1 °F 30.16 in NW 6.0 mph 12.0 mph 42 % 0.00 in
15:41 75.4 °F 50.0 °F 30.16 in NNW 5.0 mph 12.0 mph 41 % 0.00 in
15:46 75.6 °F 50.2 °F 30.16 in WSW 1.0 mph 14.0 mph 41 % 0.00 in
15:51 76.3 °F 50.2 °F 30.17 in NNW 3.0 mph 14.0 mph 40 % 0.00 in
15:56 76.1 °F 49.3 °F 30.16 in NNW 5.0 mph 14.0 mph 39 % 0.00 in
16:01 76.1 °F 50.0 °F 30.16 in WSW 3.0 mph 12.0 mph 40 % 0.00 in
16:06 76.3 °F 49.5 °F 30.16 in NW 3.0 mph 12.0 mph 39 % 0.00 in
16:11 76.3 °F 49.5 °F 30.16 in NW 2.0 mph 12.0 mph 39 % 0.00 in
16:16 76.6 °F 49.1 °F 30.15 in NNW 3.0 mph 10.0 mph 38 % 0.00 in
16:21 76.8 °F 50.0 °F 30.15 in North 2.0 mph 11.0 mph 39 % 0.00 in
16:26 76.8 °F 49.3 °F 30.15 in NNE 4.0 mph 11.0 mph 38 % 0.00 in
16:31 76.6 °F 49.1 °F 30.15 in NNW 4.0 mph 11.0 mph 38 % 0.00 in
16:37 76.6 °F 48.4 °F 30.15 in NNW 5.0 mph 9.0 mph 37 % 0.00 in
16:42 76.6 °F 49.8 °F 30.16 in NNW 3.0 mph 9.0 mph 39 % 0.00 in
16:47 76.6 °F 49.1 °F 30.15 in NW 7.0 mph 10.0 mph 38 % 0.00 in
16:52 76.6 °F 49.1 °F 30.15 in West 7.0 mph 10.0 mph 38 % 0.00 in
16:57 76.5 °F 48.9 °F 30.15 in NW 4.0 mph 12.0 mph 38 % 0.00 in
17:02 76.3 °F 48.7 °F 30.15 in NW 2.0 mph 12.0 mph 38 % 0.00 in
17:07 76.3 °F 49.5 °F 30.15 in NNW 9.0 mph 12.0 mph 39 % 0.00 in
17:10 76.3 °F 48.0 °F 30.15 in NW 4.0 mph 12.0 mph 37 % 0.00 in
17:15 76.5 °F 48.9 °F 30.15 in NW 1.0 mph 12.0 mph 38 % 0.00 in
17:20 76.3 °F 49.5 °F 30.16 in NW 2.0 mph 12.0 mph 39 % 0.00 in
17:25 76.1 °F 48.6 °F 30.15 in NW 3.0 mph 12.0 mph 38 % 0.00 in
17:30 75.7 °F 47.7 °F 30.16 in NNW 6.0 mph 11.0 mph 37 % 0.00 in
17:35 75.6 °F 48.2 °F 30.16 in NNW 4.0 mph 11.0 mph 38 % 0.00 in
17:40 75.4 °F 48.7 °F 30.16 in NNW 2.0 mph 11.0 mph 39 % 0.00 in
17:45 75.2 °F 48.6 °F 30.16 in NW 1.0 mph 11.0 mph 39 % 0.00 in
17:50 75.0 °F 48.4 °F 30.16 in NNW 6.0 mph 9.0 mph 39 % 0.00 in
17:55 74.8 °F 48.9 °F 30.16 in North 5.0 mph 9.0 mph 40 % 0.00 in
18:00 74.7 °F 48.7 °F 30.17 in ENE 3.0 mph 9.0 mph 40 % 0.00 in
18:05 74.5 °F 48.6 °F 30.17 in NNW 2.0 mph 8.0 mph 40 % 0.00 in
18:10 74.1 °F 48.9 °F 30.17 in NNW 2.0 mph 8.0 mph 41 % 0.00 in
18:15 73.9 °F 48.7 °F 30.17 in NW 2.0 mph 7.0 mph 41 % 0.00 in
18:20 73.6 °F 49.1 °F 30.17 in NNW 3.0 mph 7.0 mph 42 % 0.00 in
18:25 73.4 °F 48.9 °F 30.17 in NNW 2.0 mph 7.0 mph 42 % 0.00 in
18:30 73.0 °F 48.6 °F 30.17 in NNW 3.0 mph 6.0 mph 42 % 0.00 in
18:35 72.9 °F 49.1 °F 30.18 in NW 1.0 mph 6.0 mph 43 % 0.00 in
18:40 72.5 °F 49.3 °F 30.18 in NW 1.0 mph 6.0 mph 44 % 0.00 in
18:45 72.1 °F 49.6 °F 30.18 in NW 1.0 mph 4.0 mph 45 % 0.00 in
18:50 71.4 °F 49.6 °F 30.18 in NNW 1.0 mph 3.0 mph 46 % 0.00 in
18:51 71.4 °F 49.6 °F 30.18 in Calm   3.0 mph 46 % 0.00 in
18:56 70.9 °F 49.6 °F 30.18 in NNW 1.0 mph 3.0 mph 47 % 0.00 in
19:01 70.5 °F 49.8 °F 30.19 in Calm   3.0 mph 48 % 0.00 in
19:06 70.2 °F 49.6 °F 30.19 in Calm   3.0 mph 48 % 0.00 in
19:11 69.6 °F 49.6 °F 30.19 in Calm   3.0 mph 49 % 0.00 in
19:16 69.3 °F 49.8 °F 30.19 in Calm   2.0 mph 50 % 0.00 in
19:21 68.7 °F 49.8 °F 30.19 in Calm   2.0 mph 51 % 0.00 in
19:26 68.4 °F 50.0 °F 30.19 in Calm   1.0 mph 52 % 0.00 in
19:31 67.8 °F 49.6 °F 30.19 in Calm   1.0 mph 52 % 0.00 in
19:36 67.6 °F 50.4 °F 30.20 in Calm   1.0 mph 54 % 0.00 in
19:41 67.3 °F 50.5 °F 30.20 in Calm   1.0 mph 55 % 0.00 in
19:46 66.9 °F 50.2 °F 30.20 in Calm   1.0 mph 55 % 0.00 in
19:51 66.4 °F 50.2 °F 30.21 in Calm   1.0 mph 56 % 0.00 in
19:56 66.0 °F 50.4 °F 30.21 in Calm   1.0 mph 57 % 0.00 in
20:01 65.7 °F 50.0 °F 30.21 in Calm   1.0 mph 57 % 0.00 in
20:06 65.5 °F 50.4 °F 30.21 in Calm   1.0 mph 58 % 0.00 in
20:11 65.5 °F 50.4 °F 30.22 in Calm   1.0 mph 58 % 0.00 in
20:16 65.1 °F 50.4 °F 30.21 in Calm   1.0 mph 59 % 0.00 in
20:21 64.9 °F 50.2 °F 30.22 in Calm   1.0 mph 59 % 0.00 in
20:26 64.6 °F 50.4 °F 30.22 in Calm   1.0 mph 60 % 0.00 in
20:31 64.0 °F 50.4 °F 30.22 in Calm   1.0 mph 61 % 0.00 in
20:36 63.9 °F 50.5 °F 30.22 in Calm   1.0 mph 62 % 0.00 in
20:41 63.3 °F 50.5 °F 30.22 in Calm   1.0 mph 63 % 0.00 in
20:46 63.1 °F 50.4 °F 30.22 in Calm     63 % 0.00 in
20:51 62.8 °F 50.4 °F 30.22 in Calm     64 % 0.00 in
20:56 62.2 °F 50.4 °F 30.22 in Calm     65 % 0.00 in
21:01 61.9 °F 50.4 °F 30.22 in Calm     66 % 0.00 in
21:06 61.5 °F 50.5 °F 30.22 in Calm     67 % 0.00 in
21:11 61.3 °F 50.7 °F 30.22 in Calm     68 % 0.00 in
21:16 61.2 °F 50.5 °F 30.22 in Calm     68 % 0.00 in
21:21 61.0 °F 50.4 °F 30.23 in Calm     68 % 0.00 in
21:26 60.6 °F 50.4 °F 30.23 in Calm     69 % 0.00 in
21:31 60.6 °F 50.7 °F 30.23 in Calm     70 % 0.00 in
21:36 60.8 °F 50.9 °F 30.22 in Calm     70 % 0.00 in
21:41 60.6 °F 50.7 °F 30.22 in Calm     70 % 0.00 in
21:46 60.6 °F 50.7 °F 30.23 in Calm     70 % 0.00 in
21:51 60.4 °F 51.1 °F 30.23 in Calm     71 % 0.00 in
21:56 60.4 °F 50.5 °F 30.23 in Calm     70 % 0.00 in
22:01 60.4 °F 50.5 °F 30.23 in Calm     70 % 0.00 in
22:06 60.4 °F 50.5 °F 30.23 in Calm   1.0 mph 70 % 0.00 in
22:13 60.3 °F 50.4 °F 30.23 in Calm   1.0 mph 70 % 0.00 in
22:19 60.3 °F 50.4 °F 30.23 in Calm   1.0 mph 70 % 0.00 in
22:20 60.3 °F 50.4 °F 30.23 in Calm   1.0 mph 70 % 0.00 in
22:21 60.3 °F 50.4 °F 30.23 in Calm   1.0 mph 70 % 0.00 in
22:26 60.3 °F 50.4 °F 30.23 in Calm   1.0 mph 70 % 0.00 in
22:27 60.3 °F 50.4 °F 30.23 in Calm   1.0 mph 70 % 0.00 in
22:28 60.3 °F 50.4 °F 30.24 in Calm   1.0 mph 70 % 0.00 in
22:33 60.3 °F 50.4 °F 30.24 in Calm   1.0 mph 70 % 0.00 in
22:38 60.4 °F 50.2 °F 30.23 in Calm   1.0 mph 69 % 0.00 in
22:43 60.4 °F 50.2 °F 30.24 in Calm   1.0 mph 69 % 0.00 in
22:48 60.6 °F 50.4 °F 30.24 in Calm   2.0 mph 69 % 0.00 in
22:53 60.8 °F 50.2 °F 30.24 in Calm   2.0 mph 68 % 0.00 in
22:58 61.0 °F 50.4 °F 30.24 in Calm   2.0 mph 68 % 0.00 in
23:03 61.0 °F 50.0 °F 30.24 in North 1.0 mph 2.0 mph 67 % 0.00 in
23:08 61.0 °F 50.0 °F 30.24 in Calm   2.0 mph 67 % 0.00 in
23:13 60.8 °F 49.8 °F 30.24 in Calm   2.0 mph 67 % 0.00 in
23:18 60.8 °F 50.2 °F 30.24 in Calm   2.0 mph 68 % 0.00 in
23:23 60.6 °F 50.0 °F 30.24 in Calm   2.0 mph 68 % 0.00 in
23:24 60.6 °F 50.0 °F 30.24 in Calm   2.0 mph 68 % 0.00 in
23:29 60.3 °F 50.0 °F 30.24 in Calm   2.0 mph 69 % 0.00 in
23:34 60.1 °F 49.8 °F 30.24 in Calm   2.0 mph 69 % 0.00 in
23:39 59.7 °F 50.0 °F 30.24 in Calm   1.0 mph 70 % 0.00 in
23:44 59.4 °F 49.6 °F 30.24 in Calm   1.0 mph 70 % 0.00 in
23:49 58.8 °F 49.5 °F 30.24 in Calm   1.0 mph 71 % 0.00 in
23:54 58.5 °F 49.5 °F 30.24 in Calm   1.0 mph 72 % 0.00 in
23:59 58.3 °F 49.6 °F 30.24 in Calm     73 % 0.00 in
Spring, Texas: Villages of Bridgestone
Compliments of Weather Underground - 3 mb

Script developed by  Jim McMurry - jmcmurry@mwt.net Adapted for the template by  Wim van der Kuil - Leuven-Template.eu

You find our weather info also at:

UK Metoffice

WeatherCloud

Weather Underground

Mid-South Weather Network

AWEKAS

Citizen Weather Observer Program (CWOP)

HAMweather, WeatherForYou, PWS Weather

Equipment we use:

Weather-station
Davis Vantage Vue

Weather-program
Meteohub

Weather-server
Debian 7.9 x86 (Guest)

Provider
DreamHost

Davis Vantage Vue

Meteohub

Debian 7.9 x86 (Guest)

DreamHost